sat.trackr.live / text

‹ back to catalog

HULIANWANG DIGUI-103

NORAD 66419 · 2025-258H

PAYLOAD ACTIVE UNKNOWN

§ Identity

Operator
Country
PRC
Launch date
2025-11-10
Launch site
WSC
Launch vehicle
Mass (kg)
RCS (m²)

External: N2YO · Heavens-Above · Gunter

§ Orbital elements

Epoch: 2026-05-25T00:36:04.885920Z

Period
108.33 min
Inclination
50.0025°
Eccentricity
0.0000924
Mean motion
13.29322572 rev/d
Perigee alt
1,148.6 km
Apogee alt
1,150.0 km
Semi-major
7,527.5 km
B*
7.7400e-5
RAAN
18.4172°
Arg perigee
63.8745°
Mean anomaly
296.2222°
Rev number
2,665

§ Raw data

HULIANWANG DIGUI-1031 66419U 25258H   26145.02505655 -.00000088  00000+0  77400-4 0  99922 66419  50.0025  18.4172 0000924  63.8745 296.2222 13.29322572 26651

JSON: /api/v1/satellites/66419 · /tle

For live sub-satellite position, see the globe view (requires WebGL).

§ Visibility from observer

Set your observer location to see the next 7 days of passes ≥ 10°. The values pass through the URL so the page stays shareable.

No JS? Fill the form by hand. The geolocation button needs JavaScript.